Regional Weather Roundup
Issued by NWS

Home | Current Version | Previous Version | Text Only | Print | Product List | Glossary Off
Versions: 1 2 3 4 5 6 7 8 9 10 11 12 13 14 15 16 17 18 19 20 21 22 23 24 25 26 27 28 29 30 31 32 33 34 35 36 37 38 39 40 41 42 43 44 45 46 47 48 49 50

000
ASUS43 KDMX 260101
RWRIA

WEATHER ROUNDUP FOR IOWA
NATIONAL WEATHER SERVICE DES MOINES IA
800 PM CDT SUN JUN 25 2017

NOTE: "FAIR" INDICATES FEW OR NO CLOUDS BELOW 12,000 FEET WITH NO
SIGNIFICANT WEATHER AND/OR OBSTRUCTIONS TO VISIBILITY.

* - THESE STATIONS ARE NOT NWS STATIONS...THUS NOT UNDER NWS
QUALITY CONTROL.  THEY ALSO DO NOT REPORT WEATHER SUCH
AS PRECIPITATION OR FOG.

IAZ001>003-012>014-020>022-031>034-043>046-260200-
   NORTHWEST IOWA

CITY           SKY/WX    TMP DP  RH WIND       PRES   REMARKS
CARROLL *      PTCLDY    72  41  33 NW7G13    30.20S
CHEROKEE *     CLEAR     68  43  40 NW7       30.20F
DENISON *      CLEAR     70  43  37 NW6       30.23S
LE MARS *      SUNNY     72  43  35 N5        30.21S
ORANGE CITY *  SUNNY     68  45  42 NW5       30.21F
SHELDON *      CLEAR     68  41  37 MISG      30.19F
SIOUX CITY     SUNNY     73  41  31 NW6       30.20F
SPENCER        MOCLDY    68  43  40 N10       30.20F
STORM LAKE *   CLEAR     70  39  32 NW10      30.21F
$$

IAZ055>058-069>071-079>083-090>094-260200-
   SOUTHWEST IOWA

CITY           SKY/WX    TMP DP  RH WIND       PRES   REMARKS
ATLANTIC *     CLEAR     72  43  35 NW5       30.21F
AUDUBON *      CLEAR     70  39  32 NW5       30.22S
CLARINDA *     CLEAR     72  45  37 NW7       30.24S
COUNCIL BLFS * CLEAR     72  45  37 N3        30.22S
CRESTON *      CLEAR     70  45  40 NW8       30.23S
HARLAN  *      CLEAR     70  45  40 NW7       30.25S
LAMONI         CLEAR     70  45  40 NW8       30.21F
RED OAK *      CLEAR     70  48  46 N5        30.22S
SHENANDOAH *   CLEAR     73  50  43 CALM      30.22F
$$

IAZ047>049-059>061-072>074-084-260200-
   CENTRAL IOWA

CITY           SKY/WX    TMP DP  RH WIND       PRES   REMARKS
AMES           CLEAR     71  41  33 NW9       30.19S
ANKENY *       CLEAR     70  43  37 NW9       30.19F
BOONE *        CLEAR     68  41  37 N9        30.19R
CHARITON *     CLEAR     70  45  40 NW7       30.20S
DES MOINES     PTCLDY    72  41  32 W9        30.19S
GRINNELL*      CLEAR     68  41  37 NW7       30.19S
KNOXVILLE *    CLEAR     68  45  42 W7        30.18S
MARSHALLTOWN   CLEAR     67  45  45 NW9       30.17S
NEWTON *       CLEAR     70  41  35 NW8       30.18S
PELLA *        CLEAR     70  43  36 NW6       30.20S
PERRY *          N/A     70  37  30 NW7       30.20S
$$

IAZ004>006-015-016-023>025-035-036-260200-
   NORTH CENTRAL IOWA

CITY           SKY/WX    TMP DP  RH WIND       PRES   REMARKS
ALGONA *       CLOUDY    68  39  34 N10G17    30.20S
CLARION *        N/A     66  41  39 NW10G20   30.19F
ESTHERVILLE    CLOUDY    64  43  46 N10       30.20S
FORT DODGE *   CLEAR     68  39  34 N7        30.21S
MASON CITY     PTCLDY    64  38  38 NW14      30.19S
FOREST CITY *  MOCLDY    64  28  25 NW12      30.18F
WEBSTER CITY * CLEAR     68  41  37 NW10G17   30.18S
IOWA FALLS *     N/A     68  40  36 NW10      30.20R
$$

IAZ007>011-017>019-026>030-037>042-050>054-066-260200-
   NORTHEAST IOWA

CITY           SKY/WX    TMP DP  RH WIND       PRES   REMARKS
CEDAR RAPIDS   CLEAR     66  45  46 NW8       30.15S
CHARLES CITY * CLEAR     64  39  39 NW14G21   30.16F
CLINTON *      MOCLDY    65  51  60 NW6       30.15S
DECORAH *      CLEAR     63  43  48 VRB7G13   30.13S
DUBUQUE        CLEAR     63  46  54 NW10      30.15R
MONTICELLO *   CLEAR     66  46  48 NW10      30.14S
OELWEIN *      PTCLDY    64  45  48 NW10      30.16S
WATERLOO       CLEAR     67  40  37 NW9       30.15S
$$

IAZ064-065-067-068-078-260200-
   EAST CENTRAL IOWA

CITY           SKY/WX    TMP DP  RH WIND       PRES   REMARKS
DAVENPORT      PTCLDY    66  49  54 NW6       30.15F
IOWA CITY      CLEAR     70  43  37 NW9       30.17S
MT. PLEASANT * CLEAR     69  40  34 W8        30.17F
MUSCATINE *    CLEAR     70  45  40 NW8       30.16S
QUAD CITIES    CLEAR     68  47  46 NW8       30.15S
$$

IAZ062-063-075>077-085>089-095>099-260200-
   SOUTHEAST IOWA

CITY           SKY/WX    TMP DP  RH WIND       PRES   REMARKS
BURLINGTON     CLEAR     69  44  40 NW7       30.17S
FAIRFIELD *    PTCLDY    70  43  37 W8        30.17F
FORT MADISON * PTCLDY    70  46  43 W7        30.18F
KEOKUK *       CLEAR     70  45  40 NW8       30.17F
OSKALOOSA *      N/A     68  44  41 NW6       30.19S
OTTUMWA        CLEAR     69  43  38 W7        30.18F
WASHINGTON *   CLEAR     70  43  37 NW10      30.18S
$$

ABBREVIATIONS USED IN REMARKS
   TC - TEMPERATURES IN CELSIUS
  WCI - WIND CHILL INDEX
   HX - HEAT INDEX
  VSB - VISIBILITY
$$





USA.gov is the U.S. government's official web portal to all federal, state and local government web resources and services.